Tracking 17921 objects as of 17-January-2017
HD Live streaming from Space Station
objects crossing your sky now

BEIDOU 1B

Track BEIDOU 1B now!
BEIDOU 1B is classified as:


NORAD ID: 26643
Int'l Code: 2000-082A
Perigee: 35,743.6 km
Apogee: 36,420.0 km
Inclination: 7.7 °
Period: 1,450.8 minutes
Semi major axis: 42452 km
RCS: 0.1238 m2 (medium)
Launch date: December 20, 2000
Source: People's Republic of China (PRC)
Launch site: Xichang Space Center, China (XSC)

Space-bsaed navigation and positioning system to improve accuracy of weapons and situational awareness of military forces.
Your satellite tracking list
Your tracking list is empty





NASA's NSSDC Master Catalog

Two Line Element Set (TLE):
1 26643U 00082A   17013.75799149 -.00000041  00000-0  00000+0 0  9999
2 26643   7.7360  49.5511 0079666   2.9306 357.1416  0.99252904 58690
Source of the keplerian elements: AFSPC